sat.trackr.live / text

‹ back to catalog

SHIJIAN-6 02A (SJ-6 02A)

NORAD 29505 · 2006-046A

PAYLOAD ACTIVE UNKNOWN

§ Identity

Operator
Country
PRC
Launch date
2006-10-23
Launch site
TAISC
Launch vehicle
Mass (kg)
RCS (m²)
1.16

Purposes: science

External: N2YO · Heavens-Above · Gunter

§ Orbital elements

Epoch: 2026-09-14T21:46:47.115264Z

Period
94.87 min
Inclination
97.6282°
Eccentricity
0.0003197
Mean motion
15.17803158 rev/d
Perigee alt
510.3 km
Apogee alt
514.7 km
Semi-major
6,890.6 km
B*
2.2707e-4
RAAN
299.6673°
Arg perigee
158.6920°
Mean anomaly
201.4447°
Rev number
8,587

§ Raw data

SHIJIAN-6 02A (SJ-6 02A)1 29505U 06046A   26257.90748976  .00004522  00000+0  22707-3 0  99922 29505  97.6282 299.6673 0003197 158.6920 201.4447 15.17803158 85879

JSON: /api/v1/satellites/29505 · /tle

For live sub-satellite position, see the globe view (requires WebGL).

§ Visibility from observer

Set your observer location to see the next 7 days of passes ≥ 10°. The values pass through the URL so the page stays shareable.

No JS? Fill the form by hand. The geolocation button needs JavaScript.

§ Radio — SatNOGS DB

ModeDescriptionDownlinkUplink
BPSK S-band telemetry 2.265 GHz

1 transmitter · refreshed weekly from db.satnogs.org